This is the latest recevied weather packets stored in our database for station/object DO7ZT-13. If no packets are shown the sender has not sent any weather packets the latest 1 day(s).
| Time | Temp. | Humidity | Pressure | Rain* | Wind** | Luminosity | Snow |
|---|---|---|---|---|---|---|---|
| 1777995921 | 20° C | 65% | 1007 hPa | 0 mm | 0.89 m/s, 309° | - | - |
| 1777995608 | 20° C | 65% | 1007 hPa | 0 mm | 0.89 m/s, 308° | - | - |
| 1777995321 | 20° C | 65% | 1007 hPa | 0 mm | 0.89 m/s, 314° | - | - |
| 1777995008 | 20° C | 66% | 1007 hPa | 0 mm | 0.45 m/s, 313° | - | - |
| 1777994721 | 20° C | 65% | 1007 hPa | 0 mm | 0.45 m/s, 342° | - | - |
| 1777994409 | 20° C | 65% | 1007 hPa | 0 mm | 0.89 m/s, 302° | - | - |
| 1777994121 | 20° C | 65% | 1007 hPa | 0 mm | 0.89 m/s, 336° | - | - |
| 1777993809 | 20° C | 64% | 1007 hPa | 0 mm | 1.34 m/s, 6° | - | - |
| 1777993521 | 20° C | 65% | 1007 hPa | 0 mm | 1.34 m/s, 313° | - | - |
| 1777993208 | 20° C | 64% | 1007 hPa | 0 mm | 0.89 m/s, 335° | - | - |
| 1777992921 | 20° C | 63% | 1007 hPa | 0 mm | 0.89 m/s, 330° | - | - |
| 1777992608 | 20° C | 62% | 1007 hPa | 0 mm | 1.34 m/s, 342° | - | - |
| 1777992321 | 20° C | 62% | 1007.2 hPa | 0 mm | 1.79 m/s, 295° | - | - |
| 1777992008 | 20° C | 63% | 1007.2 hPa | 0 mm | 0.89 m/s, 328° | - | - |
| 1777991721 | 20° C | 61% | 1007.2 hPa | 0 mm | 1.34 m/s, 318° | - | - |
| 1777991408 | 20° C | 61% | 1007.2 hPa | 0 mm | 0.89 m/s, 294° | - | - |
| 1777991121 | 20° C | 61% | 1007.2 hPa | 0 mm | 0.89 m/s, 312° | - | - |
| 1777990808 | 20° C | 60% | 1007.2 hPa | 0 mm | 1.34 m/s, 12° | - | - |
| 1777990521 | 21.11° C | 60% | 1007.3 hPa | 0 mm | 1.34 m/s, 313° | - | - |
| 1777990208 | 21.11° C | 59% | 1007.3 hPa | 0 mm | 1.34 m/s, 358° | - | - |
| 1777989921 | 21.11° C | 59% | 1007.3 hPa | 0 mm | 0.89 m/s, 353° | - | - |
| 1777989608 | 21.11° C | 57% | 1007.4 hPa | 0 mm | 0.89 m/s, 335° | - | - |
| 1777989333 | 21.11° C | 58% | 1007.4 hPa | 0 mm | 0.89 m/s, 324° | - | - |
| 1777989021 | 21.11° C | 57% | 1007.4 hPa | 0 mm | 1.34 m/s, 24° | - | - |
| 1777988709 | 21.11° C | 57% | 1007.4 hPa | 0 mm | 1.34 m/s, 330° | - | - |
* Rain latest hour (hover to see other rain measurements)
** Current wind speed in m/s (hover to see current wind gust speed)